• In Hungary
  • List of Countries
  • For 7 days
  • Water Temperature
  • Satellite Maps
  • Weather Map
  • News
  • Weather Widgets
  • user-avatar
    Login

    Hourly Weather Trzaskowice

    Today, 23 October, Tuesday

    Time Temperature Precipitation Wind Pressure Humidity
    00:00 +5°C° 0 mm 4 mps 760 mmHg 83%
    01:00 +4°C° 0 mm 4 mps 760 mmHg 84%
    02:00 +4°C° 0 mm 4 mps 759 mmHg 83%
    03:00 +3°C° 0 mm 5 mps 758 mmHg 82%
    04:00 +3°C° 0 mm 5 mps 757 mmHg 81%
    05:00 +4°C° 0.3 mm 6 mps 756 mmHg 81%
    06:00 +4°C° 0.3 mm 7 mps 754 mmHg 80%
    07:00 +4°C° 0.3 mm 8 mps 753 mmHg 80%
    08:00 +5°C° 1.2 mm 9 mps 752 mmHg 80%
    09:00 +5°C° 1.2 mm 9 mps 751 mmHg 81%
    10:00 +5°C° 1.2 mm 10 mps 749 mmHg 81%
    11:00 +6°C° 1 mm 10 mps 748 mmHg 82%
    12:00 +7°C° 1 mm 10 mps 747 mmHg 82%
    13:00 +8°C° 1 mm 10 mps 746 mmHg 83%
    14:00 +8°C° 1.4 mm 10 mps 746 mmHg 83%
    15:00 +9°C° 1.4 mm 10 mps 745 mmHg 84%
    16:00 +10°C° 1.4 mm 9 mps 744 mmHg 84%
    17:00 +10°C° 1 mm 9 mps 744 mmHg 83%
    18:00 +10°C° 1 mm 9 mps 743 mmHg 82%
    19:00 +10°C° 1 mm 9 mps 743 mmHg 81%
    20:00 +10°C° 1.1 mm 8 mps 743 mmHg 81%
    21:00 +10°C° 1.1 mm 8 mps 742 mmHg 81%
    22:00 +9°C° 1.1 mm 8 mps 742 mmHg 80%
    23:00 +9°C° 0.7 mm 8 mps 741 mmHg 77%

    Tomorrow, 24 October, Wednesday

    Time Temperature Precipitation Wind Pressure Humidity
    00:00 +7°C° 0.7 mm 9 mps 741 mmHg 75%
    01:00 +7°C° 0.7 mm 9 mps 740 mmHg 72%
    02:00 +6°C° 0.1 mm 9 mps 741 mmHg 69%
    03:00 +6°C° 0.1 mm 9 mps 742 mmHg 66%
    04:00 +5°C° 0.1 mm 9 mps 742 mmHg 63%
    05:00 +5°C° 0 mm 8 mps 743 mmHg 62%
    06:00 +4°C° 0 mm 7 mps 744 mmHg 61%
    07:00 +4°C° 0 mm 6 mps 745 mmHg 60%
    08:00 +4°C° 0 mm 8 mps 745 mmHg 55%
    09:00 +5°C° 0 mm 9 mps 746 mmHg 49%
    10:00 +6°C° 0 mm 10 mps 747 mmHg 44%
    11:00 +7°C° 0 mm 10 mps 747 mmHg 43%
    12:00 +7°C° 0 mm 10 mps 748 mmHg 42%
    13:00 +7°C° 0 mm 10 mps 749 mmHg 41%
    14:00 +7°C° 0 mm 9 mps 749 mmHg 43%
    15:00 +6°C° 0 mm 8 mps 750 mmHg 45%
    16:00 +6°C° 0 mm 7 mps 750 mmHg 46%
    17:00 +5°C° 0 mm 7 mps 751 mmHg 50%
    18:00 +5°C° 0 mm 6 mps 751 mmHg 54%
    19:00 +5°C° 0 mm 5 mps 752 mmHg 58%
    20:00 +5°C° 0 mm 5 mps 752 mmHg 60%
    21:00 +5°C° 0 mm 5 mps 752 mmHg 62%
    22:00 +3°C° 0 mm 5 mps 752 mmHg 65%
    23:00 +3°C° 0 mm 5 mps 752 mmHg 68%

    Day after tomorrow, 25 October, Thursday

    Time Temperature Precipitation Wind Pressure Humidity
    00:00 +3°C° 0 mm 5 mps 752 mmHg 71%
    01:00 +3°C° 0 mm 5 mps 751 mmHg 74%
    02:00 +3°C° 0.2 mm 5 mps 751 mmHg 77%
    03:00 +3°C° 0.2 mm 5 mps 750 mmHg 81%
    04:00 +3°C° 0.2 mm 5 mps 749 mmHg 84%
    05:00 +5°C° 0.8 mm 6 mps 748 mmHg 85%
    06:00 +6°C° 0.8 mm 7 mps 747 mmHg 87%
    07:00 +7°C° 0.8 mm 8 mps 746 mmHg 89%
    08:00 +9°C° 0.2 mm 8 mps 746 mmHg 85%
    09:00 +9°C° 0.2 mm 8 mps 745 mmHg 82%
    10:00 +10°C° 0.2 mm 9 mps 745 mmHg 79%
    11:00 +10°C° 0.1 mm 9 mps 745 mmHg 76%
    12:00 +8°C° 0.1 mm 9 mps 746 mmHg 74%
    13:00 +8°C° 0.1 mm 9 mps 746 mmHg 72%
    14:00 +9°C° 0.1 mm 8 mps 746 mmHg 72%
    15:00 +9°C° 0.1 mm 8 mps 746 mmHg 71%
    16:00 +8°C° 0.1 mm 7 mps 747 mmHg 71%
    17:00 +8°C° 0 mm 7 mps 747 mmHg 73%
    18:00 +7°C° 0 mm 6 mps 747 mmHg 76%
    19:00 +7°C° 0 mm 6 mps 748 mmHg 78%
    20:00 +7°C° 0 mm 5 mps 748 mmHg 79%
    21:00 +7°C° 0 mm 5 mps 748 mmHg 81%
    22:00 +6°C° 0 mm 5 mps 749 mmHg 82%
    23:00 +6°C° 0 mm 5 mps 749 mmHg 83%

    26 October, Friday

    Time Temperature Precipitation Wind Pressure Humidity
    00:00 +6°C° 0 mm 5 mps 749 mmHg 84%
    01:00 +6°C° 0 mm 4 mps 749 mmHg 85%
    02:00 +5°C° 0 mm 4 mps 749 mmHg 87%
    03:00 +5°C° 0 mm 4 mps 748 mmHg 88%
    04:00 +5°C° 0 mm 4 mps 748 mmHg 89%
    05:00 +5°C° 0 mm 4 mps 748 mmHg 90%
    06:00 +5°C° 0 mm 3 mps 748 mmHg 91%
    07:00 +4°C° 0 mm 3 mps 748 mmHg 91%
    08:00 +5°C° 0 mm 3 mps 748 mmHg 87%
    09:00 +7°C° 0 mm 3 mps 748 mmHg 82%
    10:00 +8°C° 0 mm 3 mps 748 mmHg 78%
    11:00 +8°C° 0 mm 4 mps 747 mmHg 77%
    12:00 +10°C° 0 mm 4 mps 747 mmHg 76%
    13:00 +10°C° 0 mm 4 mps 746 mmHg 74%
    14:00 +10°C° 0.1 mm 4 mps 746 mmHg 78%
    15:00 +10°C° 0.1 mm 4 mps 745 mmHg 82%
    16:00 +10°C° 0.1 mm 3 mps 745 mmHg 85%
    17:00 +10°C° 0 mm 4 mps 744 mmHg 85%
    18:00 +10°C° 0 mm 4 mps 744 mmHg 85%
    19:00 +10°C° 0 mm 4 mps 744 mmHg 85%
    20:00 +10°C° 0 mm 4 mps 743 mmHg 85%
    21:00 +10°C° 0 mm 4 mps 743 mmHg 85%
    22:00 +8°C° 0 mm 4 mps 742 mmHg 84%
    23:00 +8°C° 0 mm 4 mps 742 mmHg 84%

    27 October, Saturday

    Time Temperature Precipitation Wind Pressure Humidity
    00:00 +8°C° 0 mm 4 mps 742 mmHg 84%
    01:00 +8°C° 0 mm 5 mps 742 mmHg 84%
    02:00 +8°C° 0.1 mm 5 mps 741 mmHg 83%
    03:00 +8°C° 0.1 mm 5 mps 741 mmHg 82%
    04:00 +7°C° 0.1 mm 5 mps 741 mmHg 81%
    05:00 +7°C° 0 mm 5 mps 741 mmHg 80%
    06:00 +6°C° 0 mm 5 mps 741 mmHg 79%
    07:00 +5°C° 0 mm 5 mps 742 mmHg 78%
    08:00 +5°C° 0 mm 6 mps 742 mmHg 74%
    09:00 +5°C° 0 mm 6 mps 742 mmHg 70%
    10:00 +6°C° 0 mm 7 mps 743 mmHg 66%
    11:00 +6°C° 0 mm 7 mps 743 mmHg 64%
    12:00 +6°C° 0 mm 7 mps 743 mmHg 61%
    13:00 +8°C° 0 mm 7 mps 743 mmHg 59%
    14:00 +7°C° 0 mm 6 mps 743 mmHg 58%
    15:00 +7°C° 0 mm 5 mps 743 mmHg 58%
    16:00 +7°C° 0 mm 5 mps 743 mmHg 58%
    17:00 +6°C° 0 mm 4 mps 743 mmHg 59%
    18:00 +6°C° 0 mm 4 mps 743 mmHg 60%
    19:00 +6°C° 0 mm 4 mps 743 mmHg 61%
    20:00 +5°C° 0 mm 4 mps 743 mmHg 62%
    21:00 +5°C° 0 mm 4 mps 743 mmHg 63%
    22:00 +5°C° 0 mm 3 mps 743 mmHg 64%
    23:00 +5°C° 0 mm 3 mps 744 mmHg 65%

    28 October, Sunday

    Time Temperature Precipitation Wind Pressure Humidity
    00:00 +4°C° 0 mm 3 mps 744 mmHg 66%
    01:00 +4°C° 0 mm 3 mps 744 mmHg 68%
    02:00 +5°C° 0 mm 2 mps 743 mmHg 70%
    03:00 +5°C° 0 mm 2 mps 743 mmHg 71%
    04:00 +4°C° 0 mm 2 mps 743 mmHg 73%
    05:00 +4°C° 0 mm 2 mps 743 mmHg 75%
    06:00 +4°C° 0 mm 2 mps 743 mmHg 77%
    07:00 +3°C° 0 mm 2 mps 743 mmHg 79%
    08:00 +4°C° 0 mm 2 mps 743 mmHg 76%
    09:00 +4°C° 0 mm 3 mps 744 mmHg 73%
    10:00 +5°C° 0 mm 3 mps 744 mmHg 70%
    11:00 +5°C° 0 mm 4 mps 744 mmHg 66%
    12:00 +6°C° 0 mm 4 mps 745 mmHg 62%
    13:00 +7°C° 0 mm 5 mps 745 mmHg 58%
    14:00 +6°C° 0 mm 4 mps 745 mmHg 58%
    15:00 +6°C° 0 mm 4 mps 745 mmHg 59%
    16:00 +7°C° 0 mm 3 mps 746 mmHg 59%
    17:00 +5°C° 0 mm 4 mps 746 mmHg 61%
    18:00 +4°C° 0 mm 4 mps 747 mmHg 62%
    19:00 +4°C° 0 mm 4 mps 747 mmHg 64%
    20:00 +3°C° 0 mm 5 mps 748 mmHg 66%
    21:00 +2°C° 0 mm 5 mps 748 mmHg 68%
    22:00 +2°C° 0 mm 5 mps 748 mmHg 70%
    23:00 +2°C° 0.1 mm 5 mps 749 mmHg 72%

    29 October, Monday

    Time Temperature Precipitation Wind Pressure Humidity
    00:00 +2°C° 0.1 mm 5 mps 749 mmHg 75%
    01:00 +2°C° 0.1 mm 5 mps 749 mmHg 77%
    02:00 +1°C° 0 mm 5 mps 750 mmHg 78%
    03:00 +1°C° 0 mm 4 mps 750 mmHg 80%
    04:00 0°C° 0 mm 4 mps 750 mmHg 81%
    05:00 +1°C° 0 mm 3 mps 751 mmHg 83%
    06:00 +1°C° 0 mm 3 mps 751 mmHg 84%
    07:00 0°C° 0 mm 3 mps 752 mmHg 86%
    08:00 +1°C° 0 mm 3 mps 752 mmHg 83%
    09:00 +2°C° 0 mm 3 mps 752 mmHg 80%
    10:00 +3°C° 0 mm 3 mps 753 mmHg 77%
    11:00 +4°C° 0 mm 3 mps 753 mmHg 73%
    12:00 +5°C° 0 mm 3 mps 753 mmHg 69%
    13:00 +7°C° 0 mm 3 mps 753 mmHg 66%
    14:00 +6°C° 0 mm 2 mps 753 mmHg 66%
    15:00 +6°C° 0 mm 2 mps 753 mmHg 67%
    16:00 +7°C° 0 mm 1 mps 753 mmHg 67%
    17:00 +6°C° 0 mm 1 mps 753 mmHg 69%
    18:00 +6°C° 0 mm 1 mps 753 mmHg 71%
    19:00 +6°C° 0 mm 1 mps 753 mmHg 72%
    20:00 +5°C° 0 mm 1 mps 753 mmHg 74%
    21:00 +5°C° 0 mm 1 mps 753 mmHg 75%
    22:00 +5°C° 0 mm 1 mps 753 mmHg 76%
    23:00 +5°C° 0.2 mm 1 mps 753 mmHg 78%
    Show more